Regional Weather Roundup
Issued by NWS New Orleans/Baton Rouge, LA

Home | Current Version | Previous Version | Text Only | Print | Product List | Glossary On
Versions: 1 2 3 4 5 6 7 8 9 10 11 12 13 14 15 16 17 18 19 20 21 22 23 24 25 26 27 28 29 30 31 32 33 34 35 36 37 38 39 40 41 42 43 44 45 46 47 48 49 50
335
ASUS44 KLIX 190901
RWRLIX
NEW ORLEANS REGIONAL WEATHER ROUNDUP
NATIONAL WEATHER SERVICE NEW ORLEANS LA
300 AM CST FRI DEC 19 2014

NOTE: "FAIR" INDICATES FEW OR NO CLOUDS BELOW 12,000 FEET WITH NO
      SIGNIFICANT WEATHER AND/OR OBSTRUCTIONS TO VISIBILITY.
      SKY/WX - SKY CONDITION AND SIGNIFICANT WEATHER.
      TMP - AIR TEMPERATURE.     DP    - DEWPOINT TEMPERATURE.
      RH  - RELATIVE HUMIDITY.   PRES  - PRESSURE.
      HI  - HEAT INDEX.          WCI   - WIND CHILL INDEX.

*  THESE STATIONS ARE NOT NWS OR FAA STATIONS AND ARE NOT UNDER
   NWS QUALITY CONTROL.

LAZ038-040-048-061>063-065>067-069-191000-
SOUTHEAST LOUISIANA

CITY           SKY/WX    TMP DP  RH WIND       PRES   REMARKS
N.O. AUDUBON     N/A     58  56  92 MISG        N/A
N.O. INTL ARPT CLOUDY    58  52  80 E10       30.06F
N.O. LAKEFRONT CLOUDY    58  52  80 E14       30.07F
N.O. DOWNTOWN* PTSUNNY   57  48  72 E5        30.07F
SLIDELL        CLOUDY    55  49  80 NE7       30.09R
BATON ROUGE    CLOUDY    54  52  93 NE10      30.05F
BOOTHVILLE     CLOUDY    62  59  90 E8        30.06F
BELLE CHASSE   CLOUDY    57  54  89 NE10      30.06F
BOGALUSA*        N/A     54  50  89 NE5       30.12F
GALLIANO*      NOT AVBL
NEW ROADS*     NOT AVBL
GONZALES*      NOT AVBL
HAMMOND*       NOT AVBL
HOUMA*         CLOUDY    58  58  98 NE6       30.04F FOG
PORT FOURCHON* PTSUNNY   64  61  88 E10       30.06F

$$

MSZ070-080>082-191000-
SOUTHERN MISSISSIPPI

CITY           SKY/WX    TMP DP  RH WIND       PRES   REMARKS
MCCOMB         CLOUDY    51  49  92 NE5       30.11S
GULFPORT       CLOUDY    54  48  80 NE7       30.10F
BILOXI         CLOUDY    55  49  83 NE9       30.10F
PASCAGOULA     CLOUDY    54  47  77 NE8       30.11F

$$

COASTAL OBSERVATIONS
LAKE AND NEARSHORE STATIONS

STATION/POSITION TIME  TEMP    WIND        PRES    WAVE
                       AIR SEA DIR/SP/G            HT/PER
                 (UTC) (F)     (DEG/KT/KT) (MB)    (FT/S)
PASCAGOULA       0800   55      30/  8/ 11 1019.3
WAVELAND YACHT   0800   54      60/  9/ 13 1018.3
GRAND ISLE       0800   63 62   80/  8/ 11 1017.6
SOUTHWEST PASS   0800   61                 1018.1
NEW CANAL        0800   58 58   80/  9/ 12 1018.7
SHELL BEACH      0800   58 60   60/ 15/ 17 1018.0

OFFSHORE STATIONS

STATION/POSITION TIME  TEMP    WIND        PRES    WAVE
                       AIR SEA DIR/SP/G            HT/PER
                 (UTC) (F)     (DEG/KT/KT) (MB)    (FT/S)
64 S DAUPHIN ISL 0900   69 75   80/ 12/ 14 1018.1    1/ 8

$$




USA.gov is the U.S. government's official web portal to all federal, state and local government web resources and services.